Regional Weather Roundup
Issued by NWS

Home | Current Version | Previous Version | Graphics & Text | Print | Product List | Glossary On
Versions: 1 2 3 4 5 6 7 8 9 10 11 12 13 14 15 16 17 18 19 20 21 22 23 24 25 26 27 28 29 30 31 32 33 34 35 36 37 38 39 40 41 42 43 44 45 46 47 48 49 50
000
ASUS43 KTOP 282008
RWRKS

WEATHER ROUNDUP FOR KANSAS
NATIONAL WEATHER SERVICE GOODLAND KS
200 PM CST FRI NOV 28 2014

NOTE:  "FAIR" INDICATES FEW OR NO CLOUDS BELOW 12,000 FEET WITH NO
SIGNIFICANT WEATHER AND/OR OBSTRUCTIONS TO VISIBILITY.

KSZ001>006-013>018-027>032-041>047-282100-
NORTHWEST KANSAS

CITY           SKY/WX    TMP DP  RH WIND       PRES   REMARKS
GOODLAND       SUNNY     79   7   6 W8        29.79F
HAYS           SUNNY     72  28  20 S15       29.77F
HILL CITY      SUNNY     76  23  14 SW16      29.75F
RUSSELL        SUNNY     67  30  25 S13       29.75F
$$

KSZ061>065-074>080-084>089-282100-
SOUTHWEST KANSAS

CITY           SKY/WX    TMP DP  RH WIND       PRES   REMARKS
DODGE CITY     SUNNY     77  18  11 W12       29.81F
ELKHART          N/A     71  24  17 S9          N/A
GARDEN CITY    SUNNY     76  17  11 SW13      29.82F
GREAT BEND     SUNNY     70  32  24 S12       29.78F
LIBERAL        SUNNY     75  25  15 S10       29.85F
PRATT          SUNNY     64  30  27 S15       29.81F
$$

KSZ066>073-081>083-090>101-282100-
SOUTHEAST KANSAS

CITY           SKY/WX    TMP DP  RH WIND       PRES   REMARKS
CHANUTE        SUNNY     61  34  36 S22G29    29.86F
COFFEYVILLE    SUNNY     63  35  35 S18G25    29.90F
HUTCHINSON     MOSUNNY   62  33  33 S18       29.82F
MEDICINE LODGE   N/A     62  33  33 S13       29.83F
NEWTON         SUNNY     61  32  33 SW21      29.84S
PARSONS        SUNNY     62  35  36 S15G22    29.90F
WICHITA INTL   MOSUNNY   60  34  37 S22       29.84F
WICHITA JABRA  SUNNY     60  34  37 S20       29.83F
WICHITA MCCONL SUNNY     59  33  37 SW18G25   29.85F
WINFIELD       SUNNY     62  36  37 S17       29.87F
$$

KSZ007>012-019>026-033>040-048>060-102>105-282100-
NORTHEAST KANSAS

CITY           SKY/WX    TMP DP  RH WIND       PRES   REMARKS
CONCORDIA      MOSUNNY   63  31  30 S13       29.75F
EMPORIA        MOSUNNY   65  32  29 S22G29    29.80F
LAWRENCE       SUNNY     59  32  36 SW15      29.82F
MANHATTAN      MOSUNNY   63  33  32 SW14      29.79F
MARYSVILLE     MOSUNNY   59  32  36 S13       29.76F
OLATHE IND     SUNNY     57  32  38 S15G25    29.84F
OLATHE EXE     SUNNY     57  32  38 S12       29.83F
SALINA         SUNNY     67  33  28 SW8       29.80F
TOPEKA BILLARD MOSUNNY   62  33  33 S10       29.80F
TOPEKA FORBES  MOSUNNY   64  33  31 S13G20    29.80F
$$



USA.gov is the U.S. government's official web portal to all federal, state and local government web resources and services.